Location: Rio de Janeiro
(22.9068°S, 43.1729°W)
Time: 08:20:57
(UTC-03:00)

Tiangong - Visible Passes

Search period start: 05 December 2023 00:00
Search period end: 15 December 2023 00:00
Orbit: 373 x 383 km, 41.5° (Epoch: 04 December)

Date Brightness Start Highest point End Pass type
(mag) Time Alt. Az. Time Alt. Az. Time Alt. Az.
06 Dec 1.3 03:52:29 10° S 03:53:17 11° SSE 03:54:06 10° SE visible
07 Dec -0.4 04:25:32 10° SW 04:28:27 35° SSE 04:31:21 10° ENE visible
08 Dec 0.8 03:24:17 10° SSW 03:26:30 18° SSE 03:28:42 10° ESE visible
08 Dec -2.3 19:50:28 10° NW 19:53:35 69° NE 19:53:58 60° E visible
09 Dec -2.1 03:58:18 10° SW 04:01:26 80° SE 04:04:32 10° NE visible
09 Dec 0.4 20:25:51 10° W 20:28:26 23° SSW 20:30:00 16° S visible
10 Dec -0.3 02:59:47 30° SE 02:59:47 30° SE 03:02:20 10° E visible
10 Dec -0.5 04:33:54 10° W 04:36:02 17° NW 04:38:08 10° N visible
10 Dec -1.2 19:23:21 10° WNW 19:26:26 50° SW 19:29:31 10° SE visible
11 Dec -0.3 03:36:01 20° NNE 03:36:01 20° NNE 03:37:11 10° NNE visible
11 Dec 1.1 19:59:39 10° WSW 20:01:21 14° SSW 20:03:03 10° S visible
12 Dec 0.3 18:56:30 10° W 18:59:12 25° SSW 19:01:55 10° SSE visible
